Hourly Weather Roundup
Issued by NWS Central Illinois

Home | Current Version | Previous Version | Text Only | Print | Product List | Glossary On
Versions: 1 2 3 4 5 6 7 8 9 10 11 12 13 14 15 16 17 18 19 20 21 22 23 24 25 26 27 28 29 30 31 32 33 34 35 36 37 38 39 40 41 42 43 44 45 46 47 48 49 50
000
NZUS43 KILX 250610
HWRILX

AREA WEATHER ROUNDUP
NATIONAL WEATHER SERVICE, LINCOLN IL
1200 AM CST SAT FEB 25 2017


CITY           SKY/WX    TMP DP  RH WIND       PRES   REMARKS
BLOOMINGTON    CLOUDY    36  30  80 W18       29.67R WCI  25
6HR MIN TEMP:  35; 6HR MAX TEMP:  44; 6HR PCP: TRACE;

CHAMPAIGN      CLOUDY    39  31  72 W18       29.69R WCI  30
6HR MIN TEMP:  39; 6HR MAX TEMP:  48; 6HR PCP: TRACE;

DECATUR        LGT SNOW  34  31  88 W18G25    29.72R FOG     WCI  23
6HR MIN TEMP:  34; 6HR MAX TEMP:  48; 6HR PCP: TRACE;

EFFINGHAM      CLOUDY    38  29  70 W29G37    29.78R WCI  26
6HR MIN TEMP:  38; 6HR MAX TEMP:  51;

FLORA          CLOUDY    43  33  67 NW22G29   29.77R WCI  34
6HR MIN TEMP:  43; 6HR MAX TEMP:  54;

GALESBURG      LGT SNOW  29  27  94 W22G30    29.74R WCI  15
6HR MIN TEMP:  29; 6HR MAX TEMP:  37;

JACKSONVILLE   CLOUDY    31  27  84 W20G29    29.80R WCI  19
6HR MIN TEMP:  31; 6HR MAX TEMP:  44;

LACON          DRIZZLE   32  31  96 NW13      29.68S WCI  22
6HR MIN TEMP:  32; 6HR MAX TEMP:  41;

LAWRENCEVILLE  CLEAR     43  32  65 W14G22    29.72F
6HR MIN TEMP:  43; 6HR MAX TEMP:  55; 6HR PCP:  0.03;

LITCHFIELD     CLOUDY    32  24  72 W25G32    29.80R WCI  19
6HR MIN TEMP:  32; 6HR MAX TEMP:  46;

$$


CITY           SKY/WX    TMP DP  RH WIND       PRES   REMARKS
LINCOLN        RAIN      34  32  92 W10G21    29.72R WCI  26
6HR MIN TEMP:  34; 6HR MAX TEMP:  47;

MACOMB         CLOUDY    29  27  94 W21       29.79R FOG     WCI  16
6HR MIN TEMP:  29; 6HR MAX TEMP:  39;

MATTOON        CLOUDY    38  29  70 W25G35    29.72R WCI  27
6HR MIN TEMP:  38; 6HR MAX TEMP:  50;

MT CARMEL AP   CLEAR     43  31  64 W17G24    29.73S WCI  35
6HR MIN TEMP:  42; 6HR MAX TEMP:  54;

OLNEY-NOBLE AP MOCLDY    41  36  81 W16G28    29.75R WCI  33
PARIS          CLOUDY    40  35  82 W22G29    29.70S WCI  30
6HR MIN TEMP:  40; 6HR MAX TEMP:  49;

PEORIA         LGT SNOW  32  31  96 NW13G20   29.70S FOG     WCI  22
6HR MIN TEMP:  33; 6HR MAX TEMP:  44; 6HR PCP:  0.01;

PONTIAC        CLOUDY    34  33  94 NW16      29.67R WCI  24
6HR MIN TEMP:  34; 6HR MAX TEMP:  44;

RANTOUL        CLOUDY    39  36  87 W16G28    29.67R WCI  31
6HR MIN TEMP:  39; 6HR MAX TEMP:  47;

SPRINGFIELD    CLOUDY    33  28  81 W18G32    29.75S WCI  22
6HR MIN TEMP:  33; 6HR MAX TEMP:  46; 6HR PCP:  0.01;

TAYLORVILLE    CLOUDY    33  28  80 W23G30    29.77R WCI  21
6HR MIN TEMP:  33; 6HR MAX TEMP:  45;

$$

...REGIONAL REPORTS...


CITY           SKY/WX    TMP DP  RH WIND       PRES   REMARKS
CHICAGO O`HARE CLOUDY    33  28  81 NW12      29.60R WCI  24
KANKAKEE       CLOUDY    37  32  82 W14G21    29.63S WCI  28
MOLINE         LGT SNOW  29  23  78 NW17G25   29.74R WCI  17
MOUNT STERLING CLOUDY    28  24  85 W16G28    29.81R WCI  16
MOUNT VERNON   CLOUDY    41  30  65 W10G17    29.79R WCI  35
PITTSFIELD     CLOUDY    30  25  81 W15G29    29.84R WCI  19
QUINCY         CLOUDY    28  22  78 W25G35    29.83R WCI  13
ROCKFORD       LGT SNOW  29  26  89 NW8       29.66R FOG     WCI  21
$$


CITY           SKY/WX    TMP DP  RH WIND       PRES   REMARKS
BURLINGTON     LGT SNOW  27  23  85 NW18G28   29.79R FOG     WCI  14
CEDAR RAPIDS   LGT SNOW  22  19  89 NW20G30   29.79R FOG     WCI   7
DES MOINES     PTCLDY    22  15  75 NW16      29.93R WCI   8
KIRKSVILLE     CLOUDY    25  21  85 W13       29.91R FOG     WCI  14
OTTUMWA        CLOUDY    25  19  78 NW17G25   29.87R WCI  12
ST LOUIS       CLOUDY    35  20  54 W24G33    29.86R WCI  23
$$


CITY           SKY/WX    TMP DP  RH WIND       PRES   REMARKS
TERRE HAUTE    MOCLDY    43  33  68 W14G21    29.69S
EVANSVILLE     PTCLDY    45  32  60 W10G18    29.75S
INDIANAPOLIS   PTCLDY    41  33  73 W13       29.64S WCI  34
LAFAYETTE      MOCLDY    41  35  79 W17       29.63S WCI  32
MADISON        LGT SNOW  22  18  85 N14G25    29.65R FOG     WCI   9
MILWAUKEE      FLURRIES  28  23  81 NW13      29.59R WCI  17
$$






USA.gov is the U.S. government's official web portal to all federal, state and local government web resources and services.